Welcome to the New NWS' Forecast!
Most changes are behind the scenes, but click here for differences you might notice.
Latest weather observations around

Haleyville, Posey Field Airport (K1M4)

Using International System of Units (Switch to English Units)
Date/ Time (CDT) Wind (kph) Vis. (km) Weather Sky Cond. Temp (°C) Rel. Humidity Wind Chill (°C) Heat Index (°C) Pressure Precip. (cm)
Air Dwpt 6 hour Altimeter (hPa) Sea level (hPa) 1 hr 3 hr 6 hr
Max Min
Aug 18 09:56 8 16.09 Cloudy BKN009 OVC070 24 22     88%   25 1019.3 1019.8 0 0  
Aug 18 06:56 SW 9 16.09 Cloudy OVC009 22 21     93%   23 1019.7 1020.2      
Aug 18 02:56 SSW 11 16.09 Cloudy BKN006 OVC010 23 22     96%   24 1019 1019.3      
Aug 18 00:39 SSW 9 16.09 Mostly Cloudy BKN006 22 22     100%   23 1019.7        
Aug 18 00:26 SSW 9 16.09 Mostly Cloudy SCT006 BKN015 22 22     100%   23 1019.7        
Notice The following observation data may not be complete
Aug 17 23:16   16.09 Mostly Cloudy BKN006          %              
Aug 17 17:56 SSE 13 11.27 Light Rain SCT020 SCT048 BKN055 26 24     90%   28 1018 1018.5 0    
Aug 17 15:10 5 11.27 Thunderstorms and Heavy Rain BKN036 BKN045 OVC055 24 21     83%   25 1018.6   0    
Notice The following observation data may not be complete
Aug 17 15:06 WSW 15 12.87 Heavy Rain SCT035 BKN042 OVC055   21      %     1018.6   0    
Notice The following observation data may not be complete
Aug 17 15:00 W 22 16.09 Thunderstorms and Rain BKN036 BKN047 BKN080   22      %     1018.6   0    
Aug 17 14:56 W 17 14.48 Thunderstorms and Rain BKN036 BKN080 29 22     67%   32 1018.6 1019 0    
Aug 17 14:52 WSW 15 16.09 Thunderstorms BKN034 BKN080 30 23     66%   34 1018.6        
Aug 17 13:56 SW 13 16.09 Mostly Clear FEW029 31 23     63%   36 1019.3 1019.5      
Aug 17 12:56 SSW 13 16.09 Partly Cloudy SCT019 30 24     70%   35 1020 1020.4      
Aug 17 11:56 S 15 16.09 Cloudy OVC015 27 23     79%   30 1020.7 1021.1      
Aug 17 10:56 SSW 22 16.09 Mostly Cloudy BKN015 28 24     77%   32 1021.3 1021.6      
Aug 17 10:20 S 15 16.09 Mostly Cloudy BKN011 26 23     84%   28 1021        
Aug 17 09:56 S 13 16.09 Cloudy OVC009 26 23     85%   28 1021.3 1021.7      
Aug 17 09:13 SSW 13 16.09 Cloudy OVC007 24 23     94%   25 1021.7        
Aug 17 07:56 SW 9 16.09 Cloudy OVC005 23 23     97%   24 1022 1022.8      
Aug 17 06:56 S 13 14.48 Cloudy OVC005 23 22     94%   24 1021 1021.9      
Aug 17 06:31 S 11 14.48 Cloudy OVC005 23 22     94%   24 1021.3        
Aug 17 05:56 S 13 14.48 Cloudy OVC003 23 22     96%   24 1021 1021.2      
Aug 17 04:56 SSW 13 6.44 Fog/Mist OVC003 23 22     96%   24 1021.3 1021.6      
Aug 17 04:51 SSW 9 6.44 Fog/Mist OVC003 23 22     94%   24 1021.3        
Aug 17 04:38 S 11 3.22 Fog/Mist OVC003 23 22     94%   24 1021.3        
Aug 17 04:11 SSW 11 1.61 Fog/Mist OVC003 22 22     100%   23 1021.3        
Aug 17 03:56 SSW 11 2.01 Fog/Mist OVC003 22 22     100%   23 1021 1021.3      
Aug 17 03:47 S 11 2.82 Fog/Mist OVC003 22 22     100%   23 1021        
Aug 17 03:19 SSW 9 14.48 Cloudy OVC003 22 22     100%   23 1021        
Aug 17 02:56 S 9 16.09 Cloudy OVC005 22 22     97%   23 1020.3 1020.5      
Aug 17 02:41 S 9 16.09 Mostly Cloudy BKN005 22 22     100%   23 1020.3        
Aug 17 02:29 S 13 16.09 Partly Cloudy SCT005 22 21     94%   23 1020.3        
Aug 17 01:56 S 9 16.09 Clear CLR 22 21     96%   22 1020.3 1020.4      
Aug 17 00:56 S 9 16.09 Clear CLR 22 21     93%   23 1020 1020.3     0
Aug 16 23:56 SSW 8 16.09 Clear CLR 22 21     93%   23 1020.7 1021      
Aug 16 22:56 S 11 16.09 Partly Cloudy SCT120 23 21     90%   23 1021.7 1021.8      
Aug 16 21:56 S 8 16.09 Mostly Clear FEW110 22 21     91%   23 1021.7 1022   0  
Aug 16 20:56 SSE 9 16.09 Partly Cloudy SCT110 22 21     93%   23 1020.3 1020.9      
Aug 16 19:56 SE 9 16.09 Mostly Cloudy BKN040 BKN049 22 21     93%   22 1020.3 1021 0    
Aug 16 19:43 SE 5 16.09 Mostly Cloudy BKN042 22 20     88%   23 1020.7   0    
Aug 16 19:17 Calm 16.09 Light Rain FEW055 21 19     88%     1020   0    
Aug 16 18:56 E 13 16.09 Thunderstorms and Rain FEW011 BKN055 BKN085 21 19     93%     1020 1020.9 1   1
Aug 16 18:45 ESE 17 14.48 Thunderstorms and Heavy Rain SCT015 BKN065 OVC110 22 19     83%   22 1020   1    
Aug 16 18:41 SSE 18 11.27 Thunderstorms and Heavy Rain SCT017 BKN040 OVC110 22 18     78%   22 1020   1    
Aug 16 18:38 SSE 26 4.83 Thunderstorms and Heavy Rain FEW011 BKN029 BKN048 22 19     83%   22 1020   1    
Aug 16 18:36 SSE 18 2.41 Thunderstorms and Heavy Rain FEW009 BKN035 OVC085 22 19     83%   22 1020   1    
Aug 16 18:32   2.01 Thunderstorms and Heavy Rain SCT009 SCT025 BKN035 22 18     78%   22 1020   1    
Aug 16 18:24   2.82 Thunderstorms and Heavy Rain FEW015 BKN034 OVC050 24 20     78%   25 1021.7   0    
Aug 16 18:00 Calm 16.09 Partly Cloudy FEW049 SCT065 SCT080 31 22     59%   35 1019.7        
Aug 16 17:56 Calm 16.09 Partly Cloudy FEW045 SCT080 31 22     61%   34 1019.7 1019.7      
Aug 16 17:34 5 16.09 Partly Cloudy SCT045 31 22     59%   35 1019.7        
Aug 16 17:00 SSW 17 14.48 Clear CLR 32 22     56%   36 1019        
Aug 16 16:56 SSW 17 14.48 Clear CLR 32 22     54%   36 1019 1018.9      
Aug 16 16:46 SW 17 14.48 Mostly Clear FEW044 32 22     56%   36 1019        
Aug 16 15:56 SW 11 16.09 Mostly Cloudy BKN045 32 22     56%   36 1019 1019.1      
Aug 16 14:56 9 16.09 Mostly Clear FEW055 32 22     56%   36 1019.3 1019.4      
Aug 16 13:56 SW 17 16.09 Mostly Cloudy SCT043 BKN065 32 22     54%   36 1020 1020      
Aug 16 12:56 SSW 13 16.09 Partly Cloudy FEW040 SCT047 32 23     59%   36 1021 1021      
Aug 16 11:56 WSW 15 16.09 Mostly Clear FEW035 32 22     55%   35 1021.3 1021.4      
Aug 16 10:56 S 21 16.09 Clear CLR 30 22     61%   33 1021.3 1021.3      
Aug 16 09:56 SSW 17 16.09 Clear CLR 30 23     65%   34 1021.7 1021.5      
Aug 16 08:56 SSW 13 16.09 Clear CLR 27 23     79%   30 1021 1021      
Aug 16 08:32 SSW 15 16.09 Mostly Clear FEW007 26 23     84%   28 1021        
Aug 16 07:56 SSW 9 16.09 Cloudy OVC007 26 23     87%   26 1021 1021.2      
Aug 16 07:09 SSW 11 16.09 Mostly Cloudy BKN007 24 23     94%   25 1021        
Aug 16 06:56 SSW 8 14.48 Partly Cloudy SCT007 23 23     97%   24 1021.3 1021.4      
Aug 16 05:56 S 11 16.09 Clear CLR 23 22     94%   24 1019.7 1019.9      
Aug 16 04:56 S 9 16.09 Clear CLR 23 22     91%   24 1019.3 1019.4      
Aug 16 03:56 S 9 16.09 Clear CLR 24 22     88%   25 1019.3 1019.2      
Aug 16 02:56 S 11 16.09 Clear CLR 24 22     88%   25 1019 1019      
Aug 16 01:56 S 9 16.09 Clear CLR 24 21     82%   25 1019 1018.8      
Aug 16 00:56 S 11 16.09 Clear CLR 24 21     79%   25 1019 1019      
Aug 15 23:56 S 8 16.09 Clear CLR 26 21     76%   26 1019.3 1019.3      
Aug 15 22:56 S 9 16.09 Clear CLR 26 21     74%   28 1019.3 1019.3      
Aug 15 21:56 S 11 16.09 Clear CLR 27 21     69%   29 1019 1019      
Aug 15 20:56 SSE 11 16.09 Clear CLR 28 22     69%   30 1018.3 1018.5      
Aug 15 19:56 SSE 5 16.09 Clear CLR 28 22     67%   31 1018.3 1018.6      
Aug 15 18:56 S 9 16.09 Clear CLR 31 21     55%   34 1018 1018.4      
Aug 15 17:56 SSW 13 16.09 Partly Cloudy SCT055 32 21     50%   35 1018 1018.2      
Aug 15 16:56 SW 17 16.09 Mostly Clear FEW055 33 19     45%   35 1018 1018.3      
Aug 15 15:56 SW 11 16.09 Partly Cloudy SCT060 33 20     47%   35 1018 1018.1      
Aug 15 14:56 WSW 15 16.09 Mostly Clear FEW060 33 19     43%   35 1018.6 1018.7      
Aug 15 13:56 W 9 16.09 Partly Cloudy SCT055 33 20     47%   35 1019 1019.2      
Aug 15 12:56 WSW 11 16.09 Partly Cloudy SCT048 32 21     50%   35 1019.3 1019.6      
Aug 15 11:56 S 15 16.09 Mostly Clear FEW038 32 22     57%   36 1020 1020      
Aug 15 10:56 SSW 13 16.09 Clear CLR 31 22     59%   34 1020.3 1020.4      
Aug 15 09:56 S 9 16.09 Clear CLR 29 22     65%   33 1020 1020.2      
Aug 15 08:56 W 5 16.09 Clear CLR 27 22     76%   29 1020 1020.3      
Aug 15 07:56 Calm 16.09 Clear CLR 23 21     87%   24 1019.7 1020.1      
Aug 15 06:56 Calm 9.66 Fog/Mist CLR 20 19     96%     1019 1019.6      
Aug 15 05:56 Calm 14.48 Clear CLR 20 19     96%     1018.6 1019      
Aug 15 04:56 Calm 14.48 Clear CLR 21 20     96%     1018.3 1018.7      
Aug 15 03:56 Calm 16.09 Clear CLR 21 21     97%     1018.3 1018.5      
Aug 15 02:56 Calm 16.09 Clear CLR 22 21     93%   22 1018.3 1018.7      
Aug 15 01:56 Calm 16.09 Clear CLR 22 21     93%   22 1018.6 1019      
Aug 15 00:56 Calm 16.09 Clear CLR 22 21     93%   22 1019.3 1019.5      
Aug 14 23:56 Calm 16.09 Clear CLR 22 21     91%   23 1019 1019.1      
Aug 14 22:56 Calm 16.09 Clear CLR 23 21     87%   23 1019 1019.1      
May 14 07:56 Calm 16.09 Clear CLR 23 20     84%   23 1019.7        
May 14 05:56 Calm 1.61 Fog/Mist CLR 16 16     100%     1018.6        
May 12 15:56 SSW 17 16.09 Clear   31 13     35%   30 1020.3 1020.8      
May 11 23:56 S 8 16.09 Clear CLR 21 15     68%     1019.7 1020      
Jun 12 02:56 S 8 16.09 Clear CLR 22 21     91%   23 1020.7 1021      
Jun 11 11:56 SSW 17 16.09 Partly Cloudy SCT075 29 21     61%   32 1022 1022.4      
Jun 10 23:56 ESE 5 16.09 Clear CLR 19 17     90%       1020.7      
Jun 10 12:56 9 16.09 Partly Cloudy SCT055 28 16     46%   28 1019.7 1020.5      
Jun 09 04:56 Calm 12.87 Clear CLR 12 12     97%     1014.6 1015.8      
Jun 08 23:56 N 5 16.09 Clear CLR 16 13     86%     1014.9 1016.2      
Jun 06 12:56 Calm 16.09 Mostly Cloudy BKN085 BKN110 22 21     93%   22 1010.8 1011.6 0   1
Jun 06 00:48 Calm 4.83 Fog/Mist FEW120 21 21     100%     1010.8   0    
Jun 05 22:37 S 8 16.09 Mostly Cloudy BKN005 22 21     94%   23 1010.8        
Notice The following observation data may not be complete
Jun 05 20:09   16.09 Partly Cloudy FEW015 SCT025          %